Regional Weather Roundup
Issued by NWS Green Bay, WI

Home | Current Version | Previous Version | Graphics & Text | Print | Product List | Glossary Off
Versions: 1 2 3 4 5 6 7 8 9 10 11 12 13 14 15 16 17 18 19 20 21 22 23 24 25 26 27 28 29 30 31 32 33 34 35 36 37 38 39 40 41 42 43 44 45 46 47 48 49 50

000
ASUS43 KGRB 290010
RWRGRB

NORTH-CENTRAL AND NORTHEAST WISCONSIN REGIONAL WEATHER ROUNDUP
NATIONAL WEATHER SERVICE GREEN BAY WI
600 PM CST WED JAN 28 2015

WIZ005-009-010>012-018-019-290100-
NORTH CENTRAL WISCONSIN

CITY           SKY/WX    TMP DP  RH WIND       PRES   REMARKS
IRONWOOD       CLOUDY    30  21  69 S3        29.78S
MANITOWISH WTR CLOUDY    27  21  77 SE7       29.80F
ARBOR VITAE    CLOUDY    29  23  76 SE8G16    29.81F
EAGLE RIVER    CLOUDY    28  19  71 SE8       29.83F
LAND O LAKES   CLOUDY    29  21  73 SE8       29.83F
RHINELANDER    CLOUDY    26  20  77 SE12      29.84F
PHILLIPS       CLOUDY    28  22  78 SE8       29.81S
ANTIGO         CLOUDY    26  20  80 SE13      29.87F
TOMAHAWK       CLOUDY    27  20  77 CALM      29.84F
MERRILL        CLOUDY    27  22  79 SE13      29.86S
$$

WIZ013-073-290100-
NORTHEAST WISCONSIN

CITY           SKY/WX    TMP DP  RH WIND       PRES   REMARKS
IRON MOUNTAIN  MOCLDY    27  21  78 SE12      29.92F
MARINETTE      CLOUDY    30  23  74 S10       29.97F
OCONTO         MOCLDY    29  24  81 SE9       29.96F
$$

WIZ017-030-035>037-045-290100-
CENTRAL WISCONSIN

CITY           SKY/WX    TMP DP  RH WIND       PRES   REMARKS
MEDFORD        CLOUDY    26  21  82 SE10      29.81F
WAUSAU         CLOUDY    27  20  75 SE12      29.85F
MOSINEE        CLEAR     27  21  80 SE9       29.87F
MARSHFIELD     MOCLDY    28  21  75 SE13      29.84F
WISC RAPIDS    MOCLDY    28  19  69 SE8       29.87F
STEVENS POINT  MOCLDY    27  19  72 E9        29.87F
WAUPACA        CLOUDY    30  21  70 E7        29.91F
SHAWANO        CLOUDY    31  24  74 SE5       29.94F
CLINTONVILLE   CLOUDY    30  21  69 SE6       29.92F
$$

WIZ038-039-048-051-290100-
FOX VALLEY

CITY           SKY/WX    TMP DP  RH WIND       PRES   REMARKS
NWS GREEN BAY  CLOUDY    30  23  75 SE15      29.95F
APPLETON       MOCLDY    28  21  74 SE9       29.93F
OSHKOSH        CLOUDY    30  21  69 SE10      29.92F
FOND DU LAC    CLOUDY    30  20  66 SE14      29.92F
$$

WIZ022-050-052-290100-
EAST CENTRAL WISCONSIN

CITY           SKY/WX    TMP DP  RH WIND       PRES   REMARKS
STURGEON BAY   CLOUDY    30  25  80 S18G25    29.99F
MANITOWOC      CLOUDY    32  26  78 S17G30    29.98F
SHEBOYGAN      CLOUDY    32  23  69 S14G26    29.97F
$$

LMZ563-521-522-541>543-290100-
LAKESHORE

STATION/POSITION TIME  TEMP    WIND        PRES    VSBY  WAVE
                       AIR SEA DIR/SP/G                  HT/PER
                 (UTC) (F)     (DEG/KT/KT) (MB)    (MI)  (FT/S)
SHEBOYGAN LKSHOR 0000   33     160/ 29/ 33 1015.8F
KEWAUNEE LKSHORE 0000   32     170/ 25/ 30 1015.2S
NORTHPORT PIER   0000   31     150/ 14/ 26 1016.3F
SISTER BAY LKSHO 2300   32     190/ 18/ 23   N/A
CHAMBERS ISLAND  0000   31     160/  4/ 13 1015.9S
MENOMINEE LKSHOR 0000   28     160/  9     1016.0F
$$



USA.gov is the U.S. government's official web portal to all federal, state and local government web resources and services.